Regional Weather Roundup
Issued by NWS Northern Indiana

Home | Current Version | Previous Version | Text Only | Print | Product List | Glossary On
Versions: 1 2 3 4 5 6 7 8 9 10 11 12 13 14 15 16 17 18 19 20 21 22 23 24 25 26 27 28 29 30 31 32 33 34 35 36 37 38 39 40 41 42 43 44 45 46 47 48 49 50
000
ASUS43 KIWX 270510
RWRIWX

KIWX WEATHER ROUNDUP
NATIONAL WEATHER SERVICE NORTHERN INDIANA
1200 AM EST MON FEB 27 2017

NOTE: "FAIR" INDICATES FEW OR NO CLOUDS BELOW 12,000 FEET WITH NO
SIGNIFICANT WEATHER AND/OR OBSTRUCTIONS TO VISIBILITY.

* THESE STATIONS ARE NOT UNDER NWS QUALITY CONTROL. THEY ALSO MAY NOT
  REPORT WEATHER SUCH AS PRECIPITATION OR FOG.

INZ001>027-270600-
NORTHERN INDIANA

CITY           SKY/WX    TMP DP  RH WIND       PRES   REMARKS
GARY*          CLOUDY    39  24  53 SW6       30.09R
VALPARAISO     CLEAR     35  23  61 SW7       30.10R WCI  29
MICHIGAN CITY* CLEAR     36  25  64 S9        30.09R
LAPORTE*       PTCLDY    34  24  66 SW8       30.09S WCI  27
KNOX*          CLEAR     32   5  32 SW8       30.10R WCI  25
SOUTH BEND     CLEAR     34  22  61 SW10      30.09R WCI  26
GOSHEN         CLEAR     34  22  61 SW9       30.09R WCI  27
MONTICELLO*    PTCLDY    35  21  58 SW3       30.12R
LOGANSPORT*    MOCLDY    32  28  86 S7        30.13R WCI  26
ROCHESTER*     CLOUDY    41  27  56 SW10      30.12R
WARSAW*        MOCLDY    37  23  56 SW6       30.10S
ANGOLA*        CLEAR     36  23  60 SW10      30.08S
FORT WAYNE     CLOUDY    37  25  61 SW9       30.12S
HUNTINGTON*    CLOUDY    38  24  55 SW5       30.13R
PERU/GRISSOM   CLOUDY    37  26  63 SW9       30.11R
MARION*        CLOUDY    37  26  64 S7        30.14R

$$
INZ028>050-270600-
CENTRAL INDIANA

CITY           SKY/WX    TMP DP  RH WIND       PRES   REMARKS
LAFAYETTE      PTCLDY    36  23  59 CALM      30.13R
KOKOMO*        PTCLDY    36  24  62 S9        30.13S
MUNCIE*        PTCLDY    40  18  41 S6        30.13S
INDIANAPOLIS   CLOUDY    41  17  38 S7        30.14R

$$
MIZ043>046-050>051-056>058-064>065-071>073-077>080-270600-
SOUTHWEST LOWER MICHIGAN

CITY           SKY/WX    TMP DP  RH WIND       PRES   REMARKS
BATTLE CREEK   PTCLDY    37  23  56 SW16      30.04R
BENTON HARBOR  CLEAR     40  24  53 SW17G24   30.06R
COLDWATER*     CLOUDY    37  20  50 SW12G17   30.07S
HILLSDALE*     CLEAR     34  21  60 SW9       30.06R WCI  26
HOLLAND        MOCLDY    40  29  64 SW18      30.02R
GRAND RAPIDS   FLURRIES  38  23  55 SW8       30.01R
KALAMAZOO      CLOUDY    39  21  48 SW14      30.05R
STURGIS*       PTCLDY    34  24  65 SW7       30.07S WCI  28
THREE RIVERS*  FAIR      35  23  60 SW9       30.08R WCI  28

$$
OHZ001>008-015>018-024>025-270600-
NORTHWEST OHIO

CITY           SKY/WX    TMP DP  RH WIND       PRES   REMARKS
WAUSEON*       FAIR      34  23  64 SW10      30.10R WCI  26
DEFIANCE       CLEAR     33  21  61 SW9       30.12R WCI  25
FINDLAY        PTCLDY    34  21  59 SW9       30.13S WCI  27
TOLEDO EXPRESS CLEAR     36  21  54 SW12G20   30.11R
TOLEDO METCALF CLEAR     35  23  61 SW14      30.12S WCI  26
LIMA           CLOUDY    37  22  54 S8        30.14R

$$
AND FOR LAKE MICHIGAN COASTAL AND OPEN LAKE BUOY OBSERVATIONS

STATION/POSITION TEMP    WIND        PRES    VSBY  WAVE
                 AIR SEA DIR/SP/G                  HT/PER
                 (F)     (DEG/KT/KT) (MB)    (MI)  (FT/S)
CALUMET HARBOR    39     210/  9/ 13 1017.7R
MICHIGAN CITY     39     180/ 15/ 17   N/A
BURNS HARBOR      39     200/ 13/ 18 1019.0R
SAINT JOSEPH      40     210/ 18/ 24 1017.9

$$
&&




USA.gov is the U.S. government's official web portal to all federal, state and local government web resources and services.